sat.trackr.live / text

‹ back to catalog

STARLINK-3783

NORAD 52282 · 2022-041X

PAYLOAD ACTIVE UNKNOWN

§ Identity

Operator
Country
US
Launch date
2022-04-21
Launch site
AFETR
Launch vehicle
Mass (kg)
RCS (m²)

Purposes: comms

External: N2YO · Heavens-Above · Gunter

§ Orbital elements

Epoch: 2026-09-19T19:04:05.566368Z

Period
93.90 min
Inclination
53.1603°
Eccentricity
0.0001353
Mean motion
15.33550438 rev/d
Perigee alt
464.3 km
Apogee alt
466.2 km
Semi-major
6,843.4 km
B*
2.9996e-5
RAAN
295.1200°
Arg perigee
81.3274°
Mean anomaly
278.7881°
Rev number
24,397

§ Raw data

STARLINK-37831 52282U 22041X   26262.79450887  .00000614  00000+0  29996-4 0  99932 52282  53.1603 295.1200 0001353  81.3274 278.7881 15.33550438243978

JSON: /api/v1/satellites/52282 · /tle

For live sub-satellite position, see the globe view (requires WebGL).

§ Visibility from observer

Set your observer location to see the next 7 days of passes ≥ 10°. The values pass through the URL so the page stays shareable.

No JS? Fill the form by hand. The geolocation button needs JavaScript.